This demonstration page uses our WeatherBlox Daily Observations layout. Learn more.

Left ArrowRight Arrow

Hourly Observations for June 24, 2019

Temp ( °F °C ) Dew Point ( °F °C ) Humidity (%) Winds ( mph kmh ) Pressure ( in mb ) Visibility ( mi km ) Precip ( " mm )
12:34 am 00:34 Partly Cloudy 63 17 57 14 83 83 WNW 5 7 29.70 1006 10 16 0.00 0.00
12:56 am 00:56 Mostly Cloudy 63 17 55 13 77 77 WNW 7 11 29.70 1006 10 16 0.00 0.00
1:56 am 01:56 Mostly Cloudy 63 17 57 14 83 83 WNW 9 15 29.70 1006 10 16 0.00 0.00
2:56 am 02:56 Mostly Cloudy 63 17 55 13 77 77 NW 10 17 29.71 1006 10 16 0.00 0.00
3:56 am 03:56 Mostly Cloudy 63 17 54 12 73 73 NW 10 17 29.70 1006 10 16 0.00 0.00
4:56 am 04:56 Mostly Cloudy 63 17 54 12 73 73 WNW 6 9 29.71 1006 10 16 0.00 0.00
5:56 am 05:56 Mostly Cloudy 63 17 54 12 73 73 Calm 29.72 1006 10 16 0.00 0.00
6:16 am 06:16 Mostly Cloudy 61 16 54 12 77 77 WNW 3 6 29.72 1006 10 16 0.00 0.00
6:56 am 06:56 Partly Cloudy 63 17 54 12 73 73 Calm 29.72 1007 10 16 0.00 0.00
7:56 am 07:56 Partly Cloudy 66 19 54 12 64 64 W 7 11 29.73 1007 10 16 0.00 0.00
8:56 am 08:56 Mostly Sunny 70 21 54 12 57 57 Calm 29.74 1007 N/A 0.00 0.00
9:56 am 09:56 Mostly Sunny 72 22 54 12 53 53 W 5 7 29.74 1007 10 16 0.00 0.00
10:56 am 10:56 Mostly Sunny 77 25 52 11 42 42 W 7 11 29.73 1007 10 16 0.00 0.00
11:56 am 11:56 Mostly Sunny 77 25 52 11 42 42 SW 10 17 29.74 1007 10 16 0.00 0.00
12:56 pm 12:56 Mostly Sunny 81 27 54 12 39 39 WSW 14 22 29.73 1007 10 16 0.00 0.00
1:56 pm 13:56 Mostly Sunny 64 18 55 13 73 73 WNW 13 20 29.72 1007 10 16 0.00 0.00
2:56 pm 14:56 Mostly Sunny 82 28 52 11 35 35 WSW 14 22 29.72 1006 7 11 0.00 0.00
3:56 pm 15:56 Mostly Sunny 82 28 52 11 35 35 WSW 14 22 29.71 1006 7 11 0.00 0.00
4:56 pm 16:56 Mostly Sunny 82 28 50 10 32 32 WSW 12 19 29.71 1006 7 11 0.00 0.00
5:57 pm 17:57 Mostly Sunny 82 28 52 11 35 35 WSW 15 24 29.71 1006 7 11 0.00 0.00
6:56 pm 18:56 Sunny 82 28 52 11 35 35 VRB 7 11 29.71 1006 7 11 0.00 0.00
7:56 pm 19:56 Mostly Sunny 81 27 52 11 37 37 WSW 8 13 29.71 1006 7 11 0.00 0.00
8:56 pm 20:56 Mostly Sunny 77 25 57 14 51 51 SW 6 9 29.72 1006 7 11 0.00 0.00
9:56 pm 21:56 Mostly Clear 75 24 55 13 50 50 SSW 5 7 29.73 1007 7 11 0.00 0.00
10:56 pm 22:56 Mostly Clear 73 23 57 14 57 57 S 5 7 29.74 1007 10 16 0.00 0.00
11:56 pm 23:56 Clear 72 22 57 14 61 61 SSW 6 9 29.74 1007 10 16 0.00 0.00

Powered by AerisWeather